contact:dominique.lefevre@mio.osupytheas.fr, maurice.libes@osupytheas.fr, didier.mallarino@osupytheas.fr
Project:EMSO http://www.emso-fr.org/EMSO-France
Depth: 2436.0 m
Title:EMSO Ligure Ouest : Data MII capteur CSTAR
DateTime,Latitude,Longitude,Instrument_Serial,Reference_Counts,Signal_Counts,Corrected_Signal_raw_counts,Calculated_Beam_c_inverse_meters,Internal_thermistor_counts
DateTime,Latitude,Longitude,Instrument_Serial,Reference_Counts,Signal_Counts,Corrected_Signal_raw_counts,Calculated_Beam_c_inverse_meters,Internal_thermistor_counts
2019-11-08T00:02:58,42.805,6.029,CST-1368DR,7416,10391,15318,0.077,551
2019-11-08T00:06:00,42.805,6.029,CST-1368DR,7416,10390,15317,0.077,551
2019-11-08T00:09:02,42.805,6.029,CST-1368DR,7416,10391,15318,0.077,551
2019-11-08T00:12:03,42.805,6.029,CST-1368DR,7416,10390,15317,0.077,551
2019-11-08T00:15:05,42.805,6.029,CST-1368DR,7416,10390,15317,0.077,551
2019-11-08T00:18:07,42.805,6.029,CST-1368DR,7416,10390,15318,0.077,551
2019-11-08T00:21:08,42.805,6.029,CST-1368DR,7416,10389,15317,0.077,551
2019-11-08T00:24:10,42.805,6.029,CST-1368DR,7416,10389,15316,0.078,551
2019-11-08T00:27:12,42.805,6.029,CST-1368DR,7416,10389,15316,0.078,551
2019-11-08T00:30:13,42.805,6.029,CST-1368DR,7416,10386,15312,0.079,551
2019-11-08T00:33:15,42.805,6.029,CST-1368DR,7416,10390,15317,0.077,551
2019-11-08T00:36:17,42.805,6.029,CST-1368DR,7416,10391,15319,0.077,551
2019-11-08T00:39:18,42.805,6.029,CST-1368DR,7416,10390,15318,0.077,551
2019-11-08T00:42:20,42.805,6.029,CST-1368DR,7416,10389,15317,0.077,551
2019-11-08T00:45:22,42.805,6.029,CST-1368DR,7416,10390,15318,0.077,551
2019-11-08T00:48:23,42.805,6.029,CST-1368DR,7416,10391,15318,0.077,551
2019-11-08T00:51:25,42.805,6.029,CST-1368DR,7416,10388,15314,0.078,551
2019-11-08T00:54:27,42.805,6.029,CST-1368DR,7416,10389,15316,0.078,551
2019-11-08T00:57:28,42.805,6.029,CST-1368DR,7416,10391,15319,0.077,550
2019-11-08T01:00:30,42.805,6.029,CST-1368DR,7416,10388,15315,0.078,551
2019-11-08T01:03:32,42.805,6.029,CST-1368DR,7416,10390,15317,0.077,551
2019-11-08T01:06:33,42.805,6.029,CST-1368DR,7416,10390,15318,0.077,550
2019-11-08T01:09:35,42.805,6.029,CST-1368DR,7416,10389,15316,0.078,550
2019-11-08T01:12:37,42.805,6.029,CST-1368DR,7416,10389,15316,0.078,551
2019-11-08T01:15:38,42.805,6.029,CST-1368DR,7416,10389,15317,0.077,551
2019-11-08T01:18:40,42.805,6.029,CST-1368DR,7416,10390,15317,0.077,551
2019-11-08T01:21:42,42.805,6.029,CST-1368DR,7416,10389,15316,0.078,550
2019-11-08T01:24:43,42.805,6.029,CST-1368DR,7416,10391,15318,0.077,551
2019-11-08T01:27:45,42.805,6.029,CST-1368DR,7416,10390,15318,0.077,551
2019-11-08T01:30:47,42.805,6.029,CST-1368DR,7416,10389,15316,0.078,551
2019-11-08T01:33:48,42.805,6.029,CST-1368DR,7416,10389,15316,0.078,551
2019-11-08T01:36:50,42.805,6.029,CST-1368DR,7416,10390,15318,0.077,551
2019-11-08T01:39:52,42.805,6.029,CST-1368DR,7416,10390,15317,0.077,551
2019-11-08T01:42:53,42.805,6.029,CST-1368DR,7416,10389,15317,0.077,551
2019-11-08T01:45:55,42.805,6.029,CST-1368DR,7416,10389,15316,0.078,551
2019-11-08T01:48:57,42.805,6.029,CST-1368DR,7416,10389,15317,0.077,551
2019-11-08T01:51:58,42.805,6.029,CST-1368DR,7416,10387,15314,0.078,551
2019-11-08T01:55:00,42.805,6.029,CST-1368DR,7416,10390,15317,0.077,551
2019-11-08T01:58:01,42.805,6.029,CST-1368DR,7416,10390,15318,0.077,551
2019-11-08T02:01:03,42.805,6.029,CST-1368DR,7416,10390,15317,0.077,551
2019-11-08T02:04:05,42.805,6.029,CST-1368DR,7416,10390,15317,0.077,551
2019-11-08T02:07:06,42.805,6.029,CST-1368DR,7416,10381,15305,0.080,550
2019-11-08T02:10:08,42.805,6.029,CST-1368DR,7416,10389,15315,0.078,551
2019-11-08T02:13:10,42.805,6.029,CST-1368DR,7416,10389,15315,0.078,551
2019-11-08T02:16:11,42.805,6.029,CST-1368DR,7416,10390,15317,0.077,551
2019-11-08T02:19:13,42.805,6.029,CST-1368DR,7415,10389,15318,0.077,551
2019-11-08T02:22:15,42.805,6.029,CST-1368DR,7416,10390,15317,0.077,551
2019-11-08T02:25:17,42.805,6.029,CST-1368DR,7415,10390,15320,0.077,551
2019-11-08T02:28:18,42.805,6.029,CST-1368DR,7415,10388,15316,0.078,550
2019-11-08T02:31:20,42.805,6.029,CST-1368DR,7415,10385,15311,0.079,551
2019-11-08T02:34:22,42.805,6.029,CST-1368DR,7416,10389,15316,0.078,551
2019-11-08T02:37:23,42.805,6.029,CST-1368DR,7416,10388,15315,0.078,551
2019-11-08T02:40:25,42.805,6.029,CST-1368DR,7416,10389,15315,0.078,551
2019-11-08T02:43:27,42.805,6.029,CST-1368DR,7415,10389,15317,0.077,551
2019-11-08T02:46:28,42.805,6.029,CST-1368DR,7415,10388,15317,0.077,551
2019-11-08T02:49:30,42.805,6.029,CST-1368DR,7415,10388,15317,0.077,551
2019-11-08T02:52:31,42.805,6.029,CST-1368DR,7415,10389,15318,0.077,551
2019-11-08T02:55:33,42.805,6.029,CST-1368DR,7415,10390,15319,0.077,551
2019-11-08T02:58:35,42.805,6.029,CST-1368DR,7415,10388,15317,0.077,551
2019-11-08T03:01:36,42.805,6.029,CST-1368DR,7415,10389,15318,0.077,551
2019-11-08T03:04:38,42.805,6.029,CST-1368DR,7415,10390,15319,0.077,551
2019-11-08T03:07:40,42.805,6.029,CST-1368DR,7415,10390,15319,0.077,551
2019-11-08T03:10:41,42.805,6.029,CST-1368DR,7415,10390,15319,0.077,551
2019-11-08T03:13:43,42.805,6.029,CST-1368DR,7415,10390,15319,0.077,551
2019-11-08T03:16:45,42.805,6.029,CST-1368DR,7415,10388,15316,0.078,551
2019-11-08T03:19:46,42.805,6.029,CST-1368DR,7415,10389,15318,0.077,551
2019-11-08T03:22:48,42.805,6.029,CST-1368DR,7415,10389,15318,0.077,550
2019-11-08T03:25:50,42.805,6.029,CST-1368DR,7415,10389,15318,0.077,551
2019-11-08T03:28:51,42.805,6.029,CST-1368DR,7415,10389,15318,0.077,551
2019-11-08T03:31:53,42.805,6.029,CST-1368DR,7415,10388,15317,0.077,551
2019-11-08T03:34:55,42.805,6.029,CST-1368DR,7415,10389,15317,0.077,550
2019-11-08T03:37:56,42.805,6.029,CST-1368DR,7415,10382,15308,0.080,551
2019-11-08T03:40:58,42.805,6.029,CST-1368DR,7415,10389,15317,0.077,551
2019-11-08T03:43:59,42.805,6.029,CST-1368DR,7415,10389,15318,0.077,551
2019-11-08T03:47:01,42.805,6.029,CST-1368DR,7415,10386,15313,0.078,550
2019-11-08T03:50:03,42.805,6.029,CST-1368DR,7415,10387,15315,0.078,551
2019-11-08T03:53:04,42.805,6.029,CST-1368DR,7415,10387,15315,0.078,551
2019-11-08T03:56:06,42.805,6.029,CST-1368DR,7415,10387,15314,0.078,551
2019-11-08T03:59:08,42.805,6.029,CST-1368DR,7415,10385,15313,0.078,551
2019-11-08T04:02:09,42.805,6.029,CST-1368DR,7415,10385,15313,0.078,551
2019-11-08T04:05:11,42.805,6.029,CST-1368DR,7415,10384,15310,0.079,551
2019-11-08T04:08:13,42.805,6.029,CST-1368DR,7415,10386,15313,0.078,551
2019-11-08T04:11:14,42.805,6.029,CST-1368DR,7415,10386,15313,0.078,551
2019-11-08T04:14:16,42.805,6.029,CST-1368DR,7415,10386,15313,0.078,551
2019-11-08T04:17:18,42.805,6.029,CST-1368DR,7415,10387,15315,0.078,551
2019-11-08T04:20:19,42.805,6.029,CST-1368DR,7415,10387,15314,0.078,551
2019-11-08T04:23:21,42.805,6.029,CST-1368DR,7415,10387,15314,0.078,551
2019-11-08T04:26:23,42.805,6.029,CST-1368DR,7415,10386,15313,0.078,551
2019-11-08T04:29:24,42.805,6.029,CST-1368DR,7415,10386,15313,0.078,551
2019-11-08T04:32:26,42.805,6.029,CST-1368DR,7415,10386,15314,0.078,551
2019-11-08T04:35:28,42.805,6.029,CST-1368DR,7415,10385,15311,0.079,551
2019-11-08T04:38:29,42.805,6.029,CST-1368DR,7415,10385,15312,0.079,551
2019-11-08T04:41:31,42.805,6.029,CST-1368DR,7415,10386,15314,0.078,551
2019-11-08T04:44:32,42.805,6.029,CST-1368DR,7415,10384,15310,0.079,551
2019-11-08T04:47:34,42.805,6.029,CST-1368DR,7415,10385,15311,0.079,550
2019-11-08T04:50:36,42.805,6.029,CST-1368DR,7415,10387,15314,0.078,551
2019-11-08T04:53:37,42.805,6.029,CST-1368DR,7415,10386,15313,0.078,551
2019-11-08T04:56:39,42.805,6.029,CST-1368DR,7415,10385,15313,0.078,551
2019-11-08T04:59:41,42.805,6.029,CST-1368DR,7415,10386,15313,0.078,551
2019-11-08T05:02:42,42.805,6.029,CST-1368DR,7415,10386,15313,0.078,551
2019-11-08T05:05:44,42.805,6.029,CST-1368DR,7415,10387,15314,0.078,551
2019-11-08T05:08:46,42.805,6.029,CST-1368DR,7415,10386,15313,0.078,551
2019-11-08T05:11:47,42.805,6.029,CST-1368DR,7415,10386,15313,0.078,551
2019-11-08T05:14:49,42.805,6.029,CST-1368DR,7415,10386,15313,0.078,551
2019-11-08T05:17:51,42.805,6.029,CST-1368DR,7415,10385,15312,0.079,551
2019-11-08T05:20:52,42.805,6.029,CST-1368DR,7414,10385,15313,0.078,551
2019-11-08T05:23:54,42.805,6.029,CST-1368DR,7415,10384,15311,0.079,551
2019-11-08T05:26:56,42.805,6.029,CST-1368DR,7414,10385,15313,0.078,551
2019-11-08T05:29:57,42.805,6.029,CST-1368DR,7414,10385,15314,0.078,551
2019-11-08T05:32:59,42.805,6.029,CST-1368DR,7414,10385,15314,0.078,551
2019-11-08T05:36:00,42.805,6.029,CST-1368DR,7414,10386,15315,0.078,550
2019-11-08T05:39:02,42.805,6.029,CST-1368DR,7414,10385,15314,0.078,551
2019-11-08T05:42:04,42.805,6.029,CST-1368DR,7414,10385,15314,0.078,551
2019-11-08T05:45:05,42.805,6.029,CST-1368DR,7414,10385,15314,0.078,551
2019-11-08T05:48:07,42.805,6.029,CST-1368DR,7414,10386,15315,0.078,551
2019-11-08T05:51:09,42.805,6.029,CST-1368DR,7414,10385,15314,0.078,550
2019-11-08T05:54:10,42.805,6.029,CST-1368DR,7414,10385,15313,0.078,551
2019-11-08T05:57:12,42.805,6.029,CST-1368DR,7414,10385,15314,0.078,551
2019-11-08T06:00:14,42.805,6.029,CST-1368DR,7414,10385,15314,0.078,551
2019-11-08T06:03:15,42.805,6.029,CST-1368DR,7414,10385,15314,0.078,551
2019-11-08T06:06:17,42.805,6.029,CST-1368DR,7414,10386,15315,0.078,551
2019-11-08T06:09:19,42.805,6.029,CST-1368DR,7414,10385,15313,0.078,551
2019-11-08T06:12:20,42.805,6.029,CST-1368DR,7414,10386,15315,0.078,551
2019-11-08T06:15:22,42.805,6.029,CST-1368DR,7414,10387,15316,0.078,551
2019-11-08T06:18:24,42.805,6.029,CST-1368DR,7414,10386,15316,0.078,551
2019-11-08T06:21:25,42.805,6.029,CST-1368DR,7414,10385,15314,0.078,551
2019-11-08T06:24:27,42.805,6.029,CST-1368DR,7414,10386,15316,0.078,551
2019-11-08T06:27:29,42.805,6.029,CST-1368DR,7414,10386,15315,0.078,551
2019-11-08T06:30:30,42.805,6.029,CST-1368DR,7414,10386,15315,0.078,550
2019-11-08T06:33:32,42.805,6.029,CST-1368DR,7414,10385,15314,0.078,551
2019-11-08T06:36:34,42.805,6.029,CST-1368DR,7414,10385,15314,0.078,551
2019-11-08T06:39:35,42.805,6.029,CST-1368DR,7414,10385,15314,0.078,551
2019-11-08T06:42:37,42.805,6.029,CST-1368DR,7414,10386,15315,0.078,551
2019-11-08T06:45:38,42.805,6.029,CST-1368DR,7414,10386,15315,0.078,551
2019-11-08T06:48:40,42.805,6.029,CST-1368DR,7414,10386,15316,0.078,551
2019-11-08T06:51:42,42.805,6.029,CST-1368DR,7414,10386,15315,0.078,551
2019-11-08T06:54:44,42.805,6.029,CST-1368DR,7414,10386,15315,0.078,551
2019-11-08T06:57:45,42.805,6.029,CST-1368DR,7414,10385,15314,0.078,551
2019-11-08T07:00:47,42.805,6.029,CST-1368DR,7414,10386,15315,0.078,551
2019-11-08T07:03:49,42.805,6.029,CST-1368DR,7414,10387,15317,0.077,551
2019-11-08T07:06:50,42.805,6.029,CST-1368DR,7414,10386,15315,0.078,551
2019-11-08T07:09:52,42.805,6.029,CST-1368DR,7414,10385,15314,0.078,551
2019-11-08T07:12:54,42.805,6.029,CST-1368DR,7414,10386,15315,0.078,551
2019-11-08T07:15:55,42.805,6.029,CST-1368DR,7414,10386,15315,0.078,551
2019-11-08T07:18:57,42.805,6.029,CST-1368DR,7414,10385,15314,0.078,551
2019-11-08T07:21:59,42.805,6.029,CST-1368DR,7414,10384,15313,0.078,551
2019-11-08T07:25:00,42.805,6.029,CST-1368DR,7414,10385,15314,0.078,551
2019-11-08T07:28:02,42.805,6.029,CST-1368DR,7414,10386,15315,0.078,551
2019-11-08T07:31:04,42.805,6.029,CST-1368DR,7414,10385,15314,0.078,551
2019-11-08T07:34:05,42.805,6.029,CST-1368DR,7414,10385,15314,0.078,551
2019-11-08T07:37:07,42.805,6.029,CST-1368DR,7414,10385,15314,0.078,551
2019-11-08T07:40:09,42.805,6.029,CST-1368DR,7414,10385,15314,0.078,551
2019-11-08T07:43:10,42.805,6.029,CST-1368DR,7414,10385,15314,0.078,551
2019-11-08T07:46:12,42.805,6.029,CST-1368DR,7414,10385,15314,0.078,551
2019-11-08T07:49:14,42.805,6.029,CST-1368DR,7414,10386,15315,0.078,551
2019-11-08T07:52:15,42.805,6.029,CST-1368DR,7414,10385,15313,0.078,551
2019-11-08T07:55:17,42.805,6.029,CST-1368DR,7414,10385,15313,0.078,551
2019-11-08T07:58:18,42.805,6.029,CST-1368DR,7414,10385,15314,0.078,551
2019-11-08T08:01:20,42.805,6.029,CST-1368DR,7413,10385,15316,0.078,551
2019-11-08T08:04:22,42.805,6.029,CST-1368DR,7413,10386,15317,0.077,551
2019-11-08T08:07:24,42.805,6.029,CST-1368DR,7414,10385,15314,0.078,551
2019-11-08T08:10:25,42.805,6.029,CST-1368DR,7413,10386,15317,0.077,551
2019-11-08T08:13:27,42.805,6.029,CST-1368DR,7413,10385,15316,0.078,551
2019-11-08T08:16:29,42.805,6.029,CST-1368DR,7413,10385,15316,0.078,550
2019-11-08T08:19:30,42.805,6.029,CST-1368DR,7413,10382,15311,0.079,551
2019-11-08T08:22:32,42.805,6.029,CST-1368DR,7413,10385,15316,0.078,551
2019-11-08T08:25:34,42.805,6.029,CST-1368DR,7413,10386,15317,0.077,551
2019-11-08T08:28:36,42.805,6.029,CST-1368DR,7413,10383,15312,0.079,551
2019-11-08T08:31:37,42.805,6.029,CST-1368DR,7413,10386,15317,0.077,551
2019-11-08T08:34:39,42.805,6.029,CST-1368DR,7414,10385,15313,0.078,550
2019-11-08T08:37:40,42.805,6.029,CST-1368DR,7413,10385,15316,0.078,551
2019-11-08T08:40:42,42.805,6.029,CST-1368DR,7413,10385,15316,0.078,551
2019-11-08T08:43:44,42.805,6.029,CST-1368DR,7413,10386,15317,0.077,551
2019-11-08T08:46:46,42.805,6.029,CST-1368DR,7413,10386,15317,0.077,550
2019-11-08T08:49:47,42.805,6.029,CST-1368DR,7413,10385,15315,0.078,551
2019-11-08T08:52:49,42.805,6.029,CST-1368DR,7413,10385,15316,0.078,550
2019-11-08T08:55:51,42.805,6.029,CST-1368DR,7413,10384,15315,0.078,551
2019-11-08T08:58:52,42.805,6.029,CST-1368DR,7413,10385,15316,0.078,551
2019-11-08T09:01:54,42.805,6.029,CST-1368DR,7413,10384,15314,0.078,551
2019-11-08T09:04:56,42.805,6.029,CST-1368DR,7413,10385,15316,0.078,551
2019-11-08T09:07:57,42.805,6.029,CST-1368DR,7413,10385,15316,0.078,551
2019-11-08T09:10:59,42.805,6.029,CST-1368DR,7413,10384,15314,0.078,551
2019-11-08T09:14:01,42.805,6.029,CST-1368DR,7413,10386,15317,0.077,551
2019-11-08T09:17:02,42.805,6.029,CST-1368DR,7413,10385,15316,0.078,551
2019-11-08T09:20:04,42.805,6.029,CST-1368DR,7413,10386,15317,0.077,551
2019-11-08T09:23:06,42.805,6.029,CST-1368DR,7413,10381,15309,0.079,551
2019-11-08T09:26:07,42.805,6.029,CST-1368DR,7413,10383,15313,0.078,551
2019-11-08T09:29:10,42.805,6.029,CST-1368DR,7413,10385,15316,0.078,551
2019-11-08T09:32:11,42.805,6.029,CST-1368DR,7413,10385,15315,0.078,551
2019-11-08T09:35:13,42.805,6.029,CST-1368DR,7413,10385,15315,0.078,551
2019-11-08T09:38:15,42.805,6.029,CST-1368DR,7413,10385,15316,0.078,551
2019-11-08T09:41:16,42.805,6.029,CST-1368DR,7413,10384,15314,0.078,551
2019-11-08T09:44:18,42.805,6.029,CST-1368DR,7413,10385,15316,0.078,551
2019-11-08T09:47:20,42.805,6.029,CST-1368DR,7413,10386,15317,0.077,551
2019-11-08T09:50:21,42.805,6.029,CST-1368DR,7413,10385,15316,0.078,551
2019-11-08T09:53:23,42.805,6.029,CST-1368DR,7413,10385,15315,0.078,551
2019-11-08T09:56:25,42.805,6.029,CST-1368DR,7413,10384,15314,0.078,551
2019-11-08T09:59:27,42.805,6.029,CST-1368DR,7413,10385,15316,0.078,551
2019-11-08T10:02:28,42.805,6.029,CST-1368DR,7413,10384,15314,0.078,551
2019-11-08T10:05:30,42.805,6.029,CST-1368DR,7413,10385,15316,0.078,551
2019-11-08T10:08:32,42.805,6.029,CST-1368DR,7413,10386,15317,0.077,551
2019-11-08T10:11:33,42.805,6.029,CST-1368DR,7413,10385,15316,0.078,551
2019-11-08T10:14:35,42.805,6.029,CST-1368DR,7413,10384,15315,0.078,551
2019-11-08T10:17:37,42.805,6.029,CST-1368DR,7413,10386,15317,0.077,551
2019-11-08T10:20:38,42.805,6.029,CST-1368DR,7413,10385,15316,0.078,551
2019-11-08T10:23:40,42.805,6.029,CST-1368DR,7413,10385,15315,0.078,551
2019-11-08T10:26:42,42.805,6.029,CST-1368DR,7413,10385,15316,0.078,551
2019-11-08T10:29:43,42.805,6.029,CST-1368DR,7413,10385,15316,0.078,551
2019-11-08T10:32:45,42.805,6.029,CST-1368DR,7413,10384,15315,0.078,550
2019-11-08T10:35:47,42.805,6.029,CST-1368DR,7413,10383,15313,0.078,551
2019-11-08T10:38:48,42.805,6.029,CST-1368DR,7413,10385,15315,0.078,551
2019-11-08T10:41:50,42.805,6.029,CST-1368DR,7413,10385,15316,0.078,551
2019-11-08T10:44:52,42.805,6.029,CST-1368DR,7413,10383,15313,0.078,551
2019-11-08T10:47:53,42.805,6.029,CST-1368DR,7413,10384,15314,0.078,550
2019-11-08T10:50:55,42.805,6.029,CST-1368DR,7413,10385,15316,0.078,551
2019-11-08T10:53:56,42.805,6.029,CST-1368DR,7413,10384,15314,0.078,551
2019-11-08T10:56:58,42.805,6.029,CST-1368DR,7413,10384,15315,0.078,551
2019-11-08T11:00:00,42.805,6.029,CST-1368DR,7413,10384,15314,0.078,550
2019-11-08T11:03:01,42.805,6.029,CST-1368DR,7413,10385,15316,0.078,551
2019-11-08T11:06:03,42.805,6.029,CST-1368DR,7413,10380,15309,0.079,551
2019-11-08T11:09:05,42.805,6.029,CST-1368DR,7413,10384,15314,0.078,551
2019-11-08T11:12:07,42.805,6.029,CST-1368DR,7413,10385,15316,0.078,551
2019-11-08T11:15:09,42.805,6.029,CST-1368DR,7413,10384,15314,0.078,551
2019-11-08T11:18:10,42.805,6.029,CST-1368DR,7413,10380,15309,0.079,551
2019-11-08T11:21:12,42.805,6.029,CST-1368DR,7412,10385,15318,0.077,551
2019-11-08T11:24:14,42.805,6.029,CST-1368DR,7412,10383,15315,0.078,551
2019-11-08T11:27:15,42.805,6.029,CST-1368DR,7412,10384,15316,0.078,550
2019-11-08T11:30:17,42.805,6.029,CST-1368DR,7412,10385,15317,0.077,551
2019-11-08T11:33:19,42.805,6.029,CST-1368DR,7412,10385,15317,0.077,551
2019-11-08T11:36:20,42.805,6.029,CST-1368DR,7412,10384,15316,0.078,550
2019-11-08T11:39:22,42.805,6.029,CST-1368DR,7412,10384,15316,0.078,551
2019-11-08T11:42:23,42.805,6.029,CST-1368DR,7412,10383,15315,0.078,550
2019-11-08T11:45:25,42.805,6.029,CST-1368DR,7412,10385,15317,0.077,551
2019-11-08T11:48:27,42.805,6.029,CST-1368DR,7412,10386,15319,0.077,550
2019-11-08T11:51:28,42.805,6.029,CST-1368DR,7412,10385,15317,0.077,551
2019-11-08T11:54:30,42.805,6.029,CST-1368DR,7412,10384,15316,0.078,551
2019-11-08T11:57:32,42.805,6.029,CST-1368DR,7412,10383,15315,0.078,551
2019-11-08T12:00:33,42.805,6.029,CST-1368DR,7412,10384,15316,0.078,551
2019-11-08T12:03:35,42.805,6.029,CST-1368DR,7412,10384,15316,0.078,551
2019-11-08T12:06:37,42.805,6.029,CST-1368DR,7412,10380,15311,0.079,551
2019-11-08T12:09:38,42.805,6.029,CST-1368DR,7412,10382,15314,0.078,551
2019-11-08T12:12:40,42.805,6.029,CST-1368DR,7412,10384,15316,0.078,551
2019-11-08T12:15:42,42.805,6.029,CST-1368DR,7412,10383,15314,0.078,551
2019-11-08T12:18:43,42.805,6.029,CST-1368DR,7412,10383,15315,0.078,551
2019-11-08T12:21:45,42.805,6.029,CST-1368DR,7412,10382,15314,0.078,550
2019-11-08T12:24:47,42.805,6.029,CST-1368DR,7412,10384,15316,0.078,551
2019-11-08T12:27:48,42.805,6.029,CST-1368DR,7412,10384,15316,0.078,551
2019-11-08T12:30:50,42.805,6.029,CST-1368DR,7412,10384,15316,0.078,551
2019-11-08T12:33:51,42.805,6.029,CST-1368DR,7412,10382,15314,0.078,551
2019-11-08T12:36:53,42.805,6.029,CST-1368DR,7412,10384,15316,0.078,551
2019-11-08T12:39:55,42.805,6.029,CST-1368DR,7412,10383,15315,0.078,551
2019-11-08T12:42:56,42.805,6.029,CST-1368DR,7412,10383,15314,0.078,550
2019-11-08T12:45:58,42.805,6.029,CST-1368DR,7412,10382,15314,0.078,551
2019-11-08T12:49:00,42.805,6.029,CST-1368DR,7412,10382,15314,0.078,551
2019-11-08T12:52:01,42.805,6.029,CST-1368DR,7412,10381,15311,0.079,550
2019-11-08T12:55:03,42.805,6.029,CST-1368DR,7412,10382,15314,0.078,551
2019-11-08T12:58:05,42.805,6.029,CST-1368DR,7412,10383,15315,0.078,551
2019-11-08T13:01:06,42.805,6.029,CST-1368DR,7412,10381,15311,0.079,551
2019-11-08T13:04:08,42.805,6.029,CST-1368DR,7412,10383,15315,0.078,551
2019-11-08T13:07:10,42.805,6.029,CST-1368DR,7412,10384,15316,0.078,551
2019-11-08T13:10:11,42.805,6.029,CST-1368DR,7412,10383,15315,0.078,551
2019-11-08T13:13:13,42.805,6.029,CST-1368DR,7412,10384,15316,0.078,551
2019-11-08T13:16:14,42.805,6.029,CST-1368DR,7412,10384,15316,0.078,551
2019-11-08T13:19:16,42.805,6.029,CST-1368DR,7412,10382,15313,0.078,551
2019-11-08T13:22:18,42.805,6.029,CST-1368DR,7412,10384,15316,0.078,551
2019-11-08T13:25:19,42.805,6.029,CST-1368DR,7412,10384,15316,0.078,551
2019-11-08T13:28:21,42.805,6.029,CST-1368DR,7412,10383,15314,0.078,550
2019-11-08T13:31:23,42.805,6.029,CST-1368DR,7412,10383,15315,0.078,551
2019-11-08T13:34:24,42.805,6.029,CST-1368DR,7412,10383,15314,0.078,551
2019-11-08T13:37:26,42.805,6.029,CST-1368DR,7412,10383,15315,0.078,551
2019-11-08T13:40:28,42.805,6.029,CST-1368DR,7412,10383,15315,0.078,551
2019-11-08T13:43:29,42.805,6.029,CST-1368DR,7412,10383,15315,0.078,551
2019-11-08T13:46:31,42.805,6.029,CST-1368DR,7412,10382,15314,0.078,551
2019-11-08T13:49:33,42.805,6.029,CST-1368DR,7412,10383,15315,0.078,551
2019-11-08T13:52:34,42.805,6.029,CST-1368DR,7412,10383,15315,0.078,551
2019-11-08T13:55:36,42.805,6.029,CST-1368DR,7412,10381,15311,0.079,551
2019-11-08T13:58:38,42.805,6.029,CST-1368DR,7412,10382,15313,0.078,551
2019-11-08T14:01:39,42.805,6.029,CST-1368DR,7412,10381,15312,0.079,551
2019-11-08T14:04:41,42.805,6.029,CST-1368DR,7412,10380,15311,0.079,551
2019-11-08T14:07:43,42.805,6.029,CST-1368DR,7412,10384,15316,0.078,551
2019-11-08T14:10:44,42.805,6.029,CST-1368DR,7412,10382,15314,0.078,551
2019-11-08T14:13:46,42.805,6.029,CST-1368DR,7412,10383,15315,0.078,551
2019-11-08T14:16:48,42.805,6.029,CST-1368DR,7412,10382,15313,0.078,551
2019-11-08T14:19:49,42.805,6.029,CST-1368DR,7412,10383,15315,0.078,551
2019-11-08T14:22:51,42.805,6.029,CST-1368DR,7412,10384,15316,0.078,551
2019-11-08T14:25:53,42.805,6.029,CST-1368DR,7412,10383,15314,0.078,551
2019-11-08T14:28:54,42.805,6.029,CST-1368DR,7412,10383,15314,0.078,551
2019-11-08T14:31:56,42.805,6.029,CST-1368DR,7412,10382,15314,0.078,551
2019-11-08T14:34:57,42.805,6.029,CST-1368DR,7412,10383,15315,0.078,551
2019-11-08T14:37:59,42.805,6.029,CST-1368DR,7412,10383,15315,0.078,551
2019-11-08T14:41:01,42.805,6.029,CST-1368DR,7412,10381,15312,0.079,551
2019-11-08T14:44:02,42.805,6.029,CST-1368DR,7411,10383,15317,0.077,551
2019-11-08T14:47:04,42.805,6.029,CST-1368DR,7411,10383,15316,0.078,551
2019-11-08T14:50:06,42.805,6.029,CST-1368DR,7411,10383,15317,0.077,551
2019-11-08T14:53:07,42.805,6.029,CST-1368DR,7411,10382,15316,0.078,551
2019-11-08T14:56:09,42.805,6.029,CST-1368DR,7411,10382,15315,0.078,551
2019-11-08T14:59:11,42.805,6.029,CST-1368DR,7411,10382,15315,0.078,551
2019-11-08T15:02:13,42.805,6.029,CST-1368DR,7411,10383,15317,0.077,551
2019-11-08T15:05:15,42.805,6.029,CST-1368DR,7411,10381,15314,0.078,551
2019-11-08T15:08:18,42.805,6.029,CST-1368DR,7411,10382,15316,0.078,551
2019-11-08T15:11:20,42.805,6.029,CST-1368DR,7411,10383,15316,0.078,551
2019-11-08T15:14:21,42.805,6.029,CST-1368DR,7411,10382,15316,0.078,551
2019-11-08T15:17:23,42.805,6.029,CST-1368DR,7411,10381,15314,0.078,550
2019-11-08T15:20:25,42.805,6.029,CST-1368DR,7411,10383,15317,0.077,551
2019-11-08T15:23:26,42.805,6.029,CST-1368DR,7411,10382,15315,0.078,551
2019-11-08T15:26:28,42.805,6.029,CST-1368DR,7411,10382,15315,0.078,551
2019-11-08T15:29:29,42.805,6.029,CST-1368DR,7411,10382,15316,0.078,550
2019-11-08T15:32:31,42.805,6.029,CST-1368DR,7411,10382,15315,0.078,551
2019-11-08T15:35:33,42.805,6.029,CST-1368DR,7411,10383,15316,0.078,551
2019-11-08T15:38:35,42.805,6.029,CST-1368DR,7411,10383,15317,0.077,551
2019-11-08T15:41:36,42.805,6.029,CST-1368DR,7411,10382,15315,0.078,551
2019-11-08T15:44:38,42.805,6.029,CST-1368DR,7411,10382,15315,0.078,551
2019-11-08T15:47:39,42.805,6.029,CST-1368DR,7411,10383,15316,0.078,551
2019-11-08T15:50:41,42.805,6.029,CST-1368DR,7411,10382,15315,0.078,551
2019-11-08T15:53:43,42.805,6.029,CST-1368DR,7411,10382,15315,0.078,551
2019-11-08T15:56:45,42.805,6.029,CST-1368DR,7411,10381,15314,0.078,551
2019-11-08T15:59:46,42.805,6.029,CST-1368DR,7411,10381,15314,0.078,551
2019-11-08T16:02:48,42.805,6.029,CST-1368DR,7411,10382,15316,0.078,550
2019-11-08T16:05:50,42.805,6.029,CST-1368DR,7411,10382,15316,0.078,551
2019-11-08T16:08:51,42.805,6.029,CST-1368DR,7411,10382,15315,0.078,551
2019-11-08T16:11:53,42.805,6.029,CST-1368DR,7411,10383,15317,0.077,551
2019-11-08T16:14:55,42.805,6.029,CST-1368DR,7411,10383,15316,0.078,551
2019-11-08T16:17:56,42.805,6.029,CST-1368DR,7411,10383,15316,0.078,551
2019-11-08T16:20:58,42.805,6.029,CST-1368DR,7411,10382,15315,0.078,551
2019-11-08T16:24:00,42.805,6.029,CST-1368DR,7411,10381,15314,0.078,551
2019-11-08T16:27:01,42.805,6.029,CST-1368DR,7411,10382,15315,0.078,551
2019-11-08T16:30:03,42.805,6.029,CST-1368DR,7411,10382,15315,0.078,551
2019-11-08T16:33:05,42.805,6.029,CST-1368DR,7411,10382,15315,0.078,551
2019-11-08T16:36:06,42.805,6.029,CST-1368DR,7411,10381,15314,0.078,551
2019-11-08T16:39:08,42.805,6.029,CST-1368DR,7411,10381,15314,0.078,551